Orbital Elements at Epoch 2459200.5 (2020-Dec-17.0) TDB
Reference: JPL 22 (heliocentric ecliptic J2000)
Element | Value | Uncertainty (1-sigma) | Units |
e | .1859290397112213 | 5.8621e-08 | |
a | 2.531675424021783 | 1.0265e-08 | au |
q | 2.060963443572914 | 1.503e-07 | au |
i | 4.922287388615 | 3.1142e-06 | deg |
node | 91.19182221377599 | 6.5454e-05 | deg |
peri | 271.2272995769193 | 6.5897e-05 | deg |
M | 197.0444111591505 | 9.2706e-06 | deg |
tp | 2459866.504593673337 (2022-Oct-14.00459367) | 3.9979e-05 | TDB |
period | 1471.331271470317 4.03 | 8.9487e-06 2.45e-08 | d yr |
n | .2446763736899631 | 1.4881e-09 | deg/d |
Q | 3.002387404470653 | 1.2174e-08 | au |
|
| | Orbit Determination Parameters
Additional Information
|